Hourly Data Report for September 05, 2017

All times are specified in Local Standard Time (LST). Add 1 hour to adjust for Daylight Saving Time where and when it is observed.

RANKIN INLET A
NUNAVUT

62°48'38.000" N
92°06'53.000" W
32.30 m
2303405
71083
YRT

Download Data

Hourly Data (September 2017)
Hourly Data Report for September 5, 2017
Temp Definition
°C
Dew Point Temp Definition
°C
Rel Hum Definition
%
Wind Dir Definition
10's deg

Wind Spd Definition
km/h
Visibility Definition
km
Stn Press Definition
kPa
Hmdx Definition


Wind Chill Definition


Weather Definition


TIME
00:00 Legend Double Dagger 4.1 2.7 91 29 4 24.1 101.25     Clear
01:00 Legend Double Dagger 5.3 3.2 87 27 5 24.1 101.24     LegendNANA
02:00 Legend Double Dagger 4.6 3.1 90 29 8 24.1 101.27     LegendNANA
03:00 Legend Double Dagger 4.3 2.2 86 30 11 24.1 101.27     Clear
04:00 Legend Double Dagger 4.6 2.2 85 29 7 24.1 101.25     LegendNANA
05:00 Legend Double Dagger 1.2 0.2 93 31 12 24.1 101.25     LegendNANA
06:00 Legend Double Dagger 2.8 1.9 93 31 11 24.1 101.24     Mainly Clear
07:00 Legend Double Dagger 3.9 2.8 93 32 12 24.1 101.21     LegendNANA
08:00 Legend Double Dagger 5.9 4.6 92 32 13 24.1 101.19     LegendNANA
09:00 Legend Double Dagger 7.6 4.5 81 32 24 24.1 101.17     Mainly Clear
10:00 Legend Double Dagger 9.6 4.8 72 33 27 24.1 101.14     LegendNANA
11:00 Legend Double Dagger 10.8 4.4 65 34 28 24.1 101.11     LegendNANA
12:00 Legend Double Dagger 11.2 1.6 51 35 36 24.1 101.10     Mainly Clear
13:00 Legend Double Dagger 11.8 2.8 54 34 34 24.1 101.12     LegendNANA
14:00 Legend Double Dagger 12.4 3.0 52 34 31 24.1 101.14     LegendNANA
15:00 Legend Double Dagger 10.9 2.9 58 34 31 24.1 101.13     Mostly Cloudy
16:00 Legend Double Dagger 10.1 3.2 62 32 30 24.1 101.15     LegendNANA
17:00 Legend Double Dagger 9.3 4.7 72 34 27 24.1 101.16     LegendNANA
18:00 Legend Double Dagger 8.5 4.3 75 34 19 24.1 101.16     Mostly Cloudy
19:00 Legend Double Dagger 7.1 3.9 80 34 21 24.1 101.16     LegendNANA
20:00 Legend Double Dagger 7.0 3.1 76 35 21 24.1 101.16     LegendNANA
21:00 Legend Double Dagger 6.0 2.7 80 34 22 24.1 101.14     Mostly Cloudy
22:00 Legend Double Dagger 5.6 2.9 82 35 20 24.1 101.16     LegendNANA
23:00 Legend Double Dagger 4.7 2.6 87 35 19 24.1 101.18     LegendNANA

Notes on Data Quality.

Legend

  • E = Estimated
  • M = Missing
  • NA = Not Available
  • ‡ = Partner data that is not subject to review by the National Climate Archives
Date modified: